Showing default

SES MPOWER-F12, 100687

Orbit data source: Space-Track

SES MPOWER-F12, 100687 is a Luxembourger payload satellite that was launched on Sun, 13 Sep 2026 UTC launched from the Air Force Eastern Test Range (AFETR). Payload-class satellites include a variety of spacecraft equipped with specific instruments for various scientific and technological missions. These include communications satellites like Starlink; space stations such as the ISS; scientific satellites like the Hubble; Earth observation satellites from companies like Planet Labs, Umbra, and HawkEye 360; GPS; miniature CubeSats for education and research; and military/defense satellites.

Loading next visibility...
Identifier
100687, 2026-208B
Orbit
Active
Country
Flag of LULU / SES
Related business
None
Manufacturer
Unknown
Mission
Operational spacecraft
Bus & Motor
Unknown
Mass
Unknown
Launch date (UTC)
2026-09-13 (2 days ago)
Launch vehicle
Unknown
Launch site
Air Force Eastern Test Range (AFETR)
Object type
Payload
Rocket body
Debris
Shape & HBR
Unknown
Radar Cross Section
RCS unknown

Expand to show TLE details & history
Last TLE update: 1 day ago

TLE from 1 day ago
0 SES MPOWER-F12
1 A0687U 26208B   26257.08540483  .00005222  00000-0  34456-3 0  9999
2 A0687  16.8931 115.7107 3226571 181.3693 177.5154  8.86991821    35
Epoch: 2026-09-14T02:02Z
TLE epoch observation values (Epoch: 2026-09-14T02:02:58.977Z)
Latitude
-0.00001°
Longitude
91.89415°
Altitude
6,655.969 km
Speed
4.555 km/s
True Right ascension
07h 42m 50s
True Declination
0° 00' 00"
Sunlit
Object was in daylight at epoch
Visualization orbit readout
Latitude
Unknown
Longitude
Unknown
Altitude
Unknown
Speed
Unknown
Apparent Right ascension
Unknown
Apparent Declination
Unknown
Sunlit
N/A
Visualization observer readout
Local Sidereal Time
02:08:16
Azimuth
Unknown
Elevation
Unknown
Doppler factor
Unknown
Orbital elements
Apogee altitude
6,666.711 km
Perigee altitude
302.23 km
Semi-major axis
9,862.608 km
Eccentricity
0.32266
Inclination
16.8931°
RAAN
115.7107°
Arg. of periapsis
181.3693°
True anomaly
178.6556°
Mean anomaly
177.5154°
Eccentric anomaly
178.12143°
Mean motion
2.21593 °/min
Orbital period
162.46 mins
BSTAR
0.00034456
Loading maneuver chart data...
Computing Atmospheric mass density...
Loading historical data...
Loading historical data...
Loading historical data...
Loading historical data...
Loading historical data...
Loading historical data...
Loading historical data...
Other satellites on launch #208 in the year 2026 (2026-09-13 UTC)

Documentation

Showing up to 5 results
|